Year,Month,Day,Hour,Minute,Value (Times are PST for temperature in C)
2013,08,21,00,00,9.80
2013,08,21,00,01,9.80
2013,08,21,00,02,9.80
2013,08,21,00,03,9.80
2013,08,21,00,04,9.80
2013,08,21,00,05,9.80
2013,08,21,00,06,9.70
2013,08,21,00,07,9.70
2013,08,21,00,08,9.70
2013,08,21,00,09,9.70
2013,08,21,00,10,9.70
2013,08,21,00,11,9.70
2013,08,21,00,12,9.70
2013,08,21,00,13,9.70
2013,08,21,00,14,9.70
2013,08,21,00,15,9.70
2013,08,21,00,16,9.70
2013,08,21,00,17,9.60
2013,08,21,00,18,9.60
2013,08,21,00,19,9.60
2013,08,21,00,20,9.60
2013,08,21,00,21,9.60
2013,08,21,00,22,9.50
2013,08,21,00,23,9.50
2013,08,21,00,24,9.50
2013,08,21,00,25,9.50
2013,08,21,00,26,9.50
2013,08,21,00,27,9.50
2013,08,21,00,28,9.40
2013,08,21,00,29,9.40
2013,08,21,00,30,9.40
2013,08,21,00,31,9.40
2013,08,21,00,32,9.40
2013,08,21,00,33,9.40
2013,08,21,00,34,9.40
2013,08,21,00,35,9.30
2013,08,21,00,36,9.30
2013,08,21,00,37,9.30
2013,08,21,00,38,9.30
2013,08,21,00,39,9.30
2013,08,21,00,40,9.30
2013,08,21,00,41,9.30
2013,08,21,00,42,9.40
2013,08,21,00,43,9.30
2013,08,21,00,44,9.40
2013,08,21,00,45,9.40
2013,08,21,00,46,9.30
2013,08,21,00,47,9.30
2013,08,21,00,48,9.30
2013,08,21,00,49,9.30
2013,08,21,00,50,9.30
2013,08,21,00,51,9.30
2013,08,21,00,52,9.30
2013,08,21,00,53,9.30
2013,08,21,00,54,9.30
2013,08,21,00,55,9.30
2013,08,21,00,56,9.30
2013,08,21,00,57,9.30
2013,08,21,00,58,9.30
2013,08,21,00,59,9.30
2013,08,21,01,00,9.30
2013,08,21,01,01,9.30
2013,08,21,01,02,9.30
2013,08,21,01,03,9.30
2013,08,21,01,04,9.30
2013,08,21,01,05,9.40
2013,08,21,01,06,9.40
2013,08,21,01,07,9.50
2013,08,21,01,08,9.50
2013,08,21,01,09,9.50
2013,08,21,01,10,9.50
2013,08,21,01,11,9.50
2013,08,21,01,12,9.40
2013,08,21,01,13,9.40
2013,08,21,01,14,9.40
2013,08,21,01,15,9.40
2013,08,21,01,16,9.40
2013,08,21,01,17,9.30
2013,08,21,01,18,9.30
2013,08,21,01,19,9.30
2013,08,21,01,20,9.30
2013,08,21,01,21,9.30
2013,08,21,01,22,9.30
2013,08,21,01,23,9.40
2013,08,21,01,24,9.40
2013,08,21,01,25,9.40
2013,08,21,01,26,9.40
2013,08,21,01,27,9.50
2013,08,21,01,28,9.50
2013,08,21,01,29,9.50
2013,08,21,01,30,9.50
2013,08,21,01,31,9.50
2013,08,21,01,32,9.50
2013,08,21,01,33,9.50
2013,08,21,01,34,9.50
2013,08,21,01,35,9.50
2013,08,21,01,36,9.50
2013,08,21,01,37,9.50
2013,08,21,01,38,9.40
2013,08,21,01,39,9.40
2013,08,21,01,40,9.40
2013,08,21,01,41,9.40
2013,08,21,01,42,9.30
2013,08,21,01,43,9.30
2013,08,21,01,44,9.30
2013,08,21,01,45,9.30
2013,08,21,01,46,9.30
2013,08,21,01,47,9.30
2013,08,21,01,48,9.20
2013,08,21,01,49,9.20
2013,08,21,01,50,9.20
2013,08,21,01,51,9.20
2013,08,21,01,52,9.20
2013,08,21,01,53,9.20
2013,08,21,01,54,9.20
2013,08,21,01,55,9.20
2013,08,21,01,56,9.20
2013,08,21,01,57,9.20
2013,08,21,01,58,9.20
2013,08,21,01,59,9.20
2013,08,21,02,00,9.20
2013,08,21,02,01,9.20
2013,08,21,02,02,9.20
2013,08,21,02,03,9.20
2013,08,21,02,04,9.20
2013,08,21,02,05,9.20
2013,08,21,02,06,9.20
2013,08,21,02,07,9.20
2013,08,21,02,08,9.20
2013,08,21,02,09,9.20
2013,08,21,02,10,9.20
2013,08,21,02,11,9.20
2013,08,21,02,12,9.20
2013,08,21,02,13,9.20
2013,08,21,02,14,9.20
2013,08,21,02,15,9.20
2013,08,21,02,16,9.20
2013,08,21,02,17,9.20
2013,08,21,02,18,9.10
2013,08,21,02,19,9.10
2013,08,21,02,20,9.10
2013,08,21,02,21,9.10
2013,08,21,02,22,9.10
2013,08,21,02,23,9.10
2013,08,21,02,24,9.10
2013,08,21,02,25,9.10
2013,08,21,02,26,9.10
2013,08,21,02,27,9.10
2013,08,21,02,28,9.10
2013,08,21,02,29,9.10
2013,08,21,02,30,9.10
2013,08,21,02,31,9.10
2013,08,21,02,32,9.10
2013,08,21,02,33,9.10
2013,08,21,02,34,9.10
2013,08,21,02,35,9.10
2013,08,21,02,36,9.10
2013,08,21,02,37,9.00
2013,08,21,02,38,9.00
2013,08,21,02,39,9.00
2013,08,21,02,40,8.90
2013,08,21,02,41,8.90
2013,08,21,02,42,8.90
2013,08,21,02,43,8.90
2013,08,21,02,44,8.90
2013,08,21,02,45,8.90
2013,08,21,02,46,8.90
2013,08,21,02,47,9.00
2013,08,21,02,48,9.00
2013,08,21,02,49,9.00
2013,08,21,02,50,9.00
2013,08,21,02,51,9.00
2013,08,21,02,52,9.00
2013,08,21,02,53,9.00
2013,08,21,02,54,9.00
2013,08,21,02,55,9.00
2013,08,21,02,56,9.00
2013,08,21,02,57,9.00
2013,08,21,02,58,9.00
2013,08,21,02,59,9.00
2013,08,21,03,00,8.90
2013,08,21,03,01,8.90
2013,08,21,03,02,8.90
2013,08,21,03,03,8.80
2013,08,21,03,04,8.80
2013,08,21,03,05,8.80
2013,08,21,03,06,8.80
2013,08,21,03,07,8.80
2013,08,21,03,08,8.80
2013,08,21,03,09,8.90
2013,08,21,03,10,8.90
2013,08,21,03,11,8.90
2013,08,21,03,12,9.00
2013,08,21,03,13,9.00
2013,08,21,03,14,9.00
2013,08,21,03,15,9.10
2013,08,21,03,16,9.10
2013,08,21,03,17,9.10
2013,08,21,03,18,9.10
2013,08,21,03,19,9.10
2013,08,21,03,20,9.20
2013,08,21,03,21,9.20
2013,08,21,03,22,9.20
2013,08,21,03,23,9.20
2013,08,21,03,24,9.30
2013,08,21,03,25,9.40
2013,08,21,03,26,9.40
2013,08,21,03,27,9.40
2013,08,21,03,28,9.40
2013,08,21,03,29,9.40
2013,08,21,03,30,9.40
2013,08,21,03,31,9.40
2013,08,21,03,32,9.40
2013,08,21,03,33,9.40
2013,08,21,03,34,9.40
2013,08,21,03,35,9.40
2013,08,21,03,36,9.40
2013,08,21,03,37,9.40
2013,08,21,03,38,9.40
2013,08,21,03,39,9.40
2013,08,21,03,40,9.40
2013,08,21,03,41,9.40
2013,08,21,03,42,9.40
2013,08,21,03,43,9.30
2013,08,21,03,44,9.30
2013,08,21,03,45,9.30
2013,08,21,03,46,9.30
2013,08,21,03,47,9.30
2013,08,21,03,48,9.30
2013,08,21,03,49,9.30
2013,08,21,03,50,9.30
2013,08,21,03,51,9.30
2013,08,21,03,52,9.30
2013,08,21,03,53,9.30
2013,08,21,03,54,9.20
2013,08,21,03,55,9.20
2013,08,21,03,56,9.20
2013,08,21,03,57,9.20
2013,08,21,03,58,9.10
2013,08,21,03,59,9.10
2013,08,21,04,00,9.10
2013,08,21,04,01,9.10
2013,08,21,04,02,9.10
2013,08,21,04,03,9.00
2013,08,21,04,04,9.00
2013,08,21,04,05,9.00
2013,08,21,04,06,9.00
2013,08,21,04,07,9.00
2013,08,21,04,08,9.00
2013,08,21,04,09,9.00
2013,08,21,04,10,8.90
2013,08,21,04,11,9.00
2013,08,21,04,12,9.00
2013,08,21,04,13,9.10
2013,08,21,04,14,9.10
2013,08,21,04,15,9.10
2013,08,21,04,16,9.10
2013,08,21,04,17,9.10
2013,08,21,04,18,9.10
2013,08,21,04,19,9.10
2013,08,21,04,20,9.10
2013,08,21,04,21,9.10
2013,08,21,04,22,9.10
2013,08,21,04,23,9.10
2013,08,21,04,24,9.10
2013,08,21,04,25,9.10
2013,08,21,04,26,9.10
2013,08,21,04,27,9.10
2013,08,21,04,28,9.10
2013,08,21,04,29,9.10
2013,08,21,04,30,9.10
2013,08,21,04,31,9.10
2013,08,21,04,32,9.10
2013,08,21,04,33,9.10
2013,08,21,04,34,9.00
2013,08,21,04,35,9.00
2013,08,21,04,36,9.00
2013,08,21,04,37,9.00
2013,08,21,04,38,9.00
2013,08,21,04,39,9.00
2013,08,21,04,40,9.00
2013,08,21,04,41,9.00
2013,08,21,04,42,8.90
2013,08,21,04,43,8.90
2013,08,21,04,44,8.90
2013,08,21,04,45,8.90
2013,08,21,04,46,8.90
2013,08,21,04,47,8.90
2013,08,21,04,48,8.90
2013,08,21,04,49,8.90
2013,08,21,04,50,8.90
2013,08,21,04,51,8.90
2013,08,21,04,52,9.00
2013,08,21,04,53,9.00
2013,08,21,04,54,9.00
2013,08,21,04,55,9.10
2013,08,21,04,56,9.10
2013,08,21,04,57,9.20
2013,08,21,04,58,9.20
2013,08,21,04,59,9.20
2013,08,21,05,00,9.30
2013,08,21,05,01,9.30
2013,08,21,05,02,9.30
2013,08,21,05,03,9.30
2013,08,21,05,04,9.40
2013,08,21,05,05,9.40
2013,08,21,05,06,9.40
2013,08,21,05,07,9.40
2013,08,21,05,08,9.40
2013,08,21,05,09,9.40
2013,08,21,05,10,9.50
2013,08,21,05,11,9.50
2013,08,21,05,12,9.50
2013,08,21,05,13,9.50
2013,08,21,05,14,9.50
2013,08,21,05,15,9.50
2013,08,21,05,16,9.50
2013,08,21,05,17,9.40
2013,08,21,05,18,9.40
2013,08,21,05,19,9.40
2013,08,21,05,20,9.40
2013,08,21,05,21,9.40
2013,08,21,05,22,9.40
2013,08,21,05,23,9.40
2013,08,21,05,24,9.40
2013,08,21,05,25,9.40
2013,08,21,05,26,9.40
2013,08,21,05,27,9.40
2013,08,21,05,28,9.30
2013,08,21,05,29,9.30
2013,08,21,05,30,9.30
2013,08,21,05,31,9.30
2013,08,21,05,32,9.30
2013,08,21,05,33,9.30
2013,08,21,05,34,9.30
2013,08,21,05,35,9.40
2013,08,21,05,36,9.40
2013,08,21,05,37,9.40
2013,08,21,05,38,9.40
2013,08,21,05,39,9.40
2013,08,21,05,40,9.40
2013,08,21,05,41,9.30
2013,08,21,05,42,9.30
2013,08,21,05,43,9.30
2013,08,21,05,44,9.30
2013,08,21,05,45,9.20
2013,08,21,05,46,9.20
2013,08,21,05,47,9.20
2013,08,21,05,48,9.20
2013,08,21,05,49,9.20
2013,08,21,05,50,9.20
2013,08,21,05,51,9.30
2013,08,21,05,52,9.30
2013,08,21,05,53,9.30
2013,08,21,05,54,9.30
2013,08,21,05,55,9.30
2013,08,21,05,56,9.30
2013,08,21,05,57,9.40
2013,08,21,05,58,9.40
2013,08,21,05,59,9.40
2013,08,21,06,00,9.40
2013,08,21,06,01,9.40
2013,08,21,06,02,9.40
2013,08,21,06,03,9.40
2013,08,21,06,04,9.40
2013,08,21,06,05,9.40
2013,08,21,06,06,9.40
2013,08,21,06,07,9.40
2013,08,21,06,08,9.40
2013,08,21,06,09,9.40
2013,08,21,06,10,9.30
2013,08,21,06,11,9.30
2013,08,21,06,12,9.30
2013,08,21,06,13,9.30
2013,08,21,06,14,9.20
2013,08,21,06,15,9.20
2013,08,21,06,16,9.20
2013,08,21,06,17,9.20
2013,08,21,06,18,9.10
2013,08,21,06,19,9.10
2013,08,21,06,20,9.10
2013,08,21,06,21,9.10
2013,08,21,06,22,9.10
2013,08,21,06,23,9.10
2013,08,21,06,24,9.10
2013,08,21,06,25,9.10
2013,08,21,06,26,9.10
2013,08,21,06,27,9.10
2013,08,21,06,28,9.20
2013,08,21,06,29,9.20
2013,08,21,06,30,9.20
2013,08,21,06,31,9.20
2013,08,21,06,32,9.20
2013,08,21,06,33,9.20
2013,08,21,06,34,9.20
2013,08,21,06,35,9.20
2013,08,21,06,36,9.20
2013,08,21,06,37,9.20
2013,08,21,06,38,9.30
2013,08,21,06,39,9.30
2013,08,21,06,40,9.30
2013,08,21,06,41,9.30
2013,08,21,06,42,9.40
2013,08,21,06,43,9.40
2013,08,21,06,44,9.50
2013,08,21,06,45,9.50
2013,08,21,06,46,9.60
2013,08,21,06,47,9.60
2013,08,21,06,48,9.70
2013,08,21,06,49,9.70
2013,08,21,06,50,9.70
2013,08,21,06,51,9.80
2013,08,21,06,52,9.80
2013,08,21,06,53,9.80
2013,08,21,06,54,9.80
2013,08,21,06,55,9.80
2013,08,21,06,56,9.80
2013,08,21,06,57,9.80
2013,08,21,06,58,9.80
2013,08,21,06,59,9.80
2013,08,21,07,00,9.90
2013,08,21,07,01,9.90
2013,08,21,07,02,9.90
2013,08,21,07,03,10.00
2013,08,21,07,04,10.00
2013,08,21,07,05,10.10
2013,08,21,07,06,10.10
2013,08,21,07,07,10.20
2013,08,21,07,08,10.20
2013,08,21,07,09,10.30
2013,08,21,07,10,10.30
2013,08,21,07,11,10.40
2013,08,21,07,12,10.40
2013,08,21,07,13,10.50
2013,08,21,07,14,10.50
2013,08,21,07,15,10.60
2013,08,21,07,16,10.70
2013,08,21,07,17,10.80
2013,08,21,07,18,10.80
2013,08,21,07,19,10.90
2013,08,21,07,20,10.90
2013,08,21,07,21,11.00
2013,08,21,07,22,11.10
2013,08,21,07,23,11.20
2013,08,21,07,24,11.20
2013,08,21,07,25,11.20
2013,08,21,07,26,11.30
2013,08,21,07,27,11.30
2013,08,21,07,28,11.30
2013,08,21,07,29,11.30
2013,08,21,07,30,11.30
2013,08,21,07,31,11.40
2013,08,21,07,32,11.40
2013,08,21,07,33,11.50
2013,08,21,07,34,11.60
2013,08,21,07,35,11.70
2013,08,21,07,36,11.70
2013,08,21,07,37,11.80
2013,08,21,07,38,11.90
2013,08,21,07,39,12.00
2013,08,21,07,40,12.10
2013,08,21,07,41,12.20
2013,08,21,07,42,12.20
2013,08,21,07,43,12.20
2013,08,21,07,44,12.20
2013,08,21,07,45,12.30
2013,08,21,07,46,12.30
2013,08,21,07,47,12.40
2013,08,21,07,48,12.40
2013,08,21,07,49,12.50
2013,08,21,07,50,12.60
2013,08,21,07,51,12.70
2013,08,21,07,52,12.70
2013,08,21,07,53,12.80
2013,08,21,07,54,12.90
2013,08,21,07,55,13.00
2013,08,21,07,56,13.10
2013,08,21,07,57,13.10
2013,08,21,07,58,13.20
2013,08,21,07,59,13.20
2013,08,21,08,00,13.20
2013,08,21,08,01,13.30
2013,08,21,08,02,13.30
2013,08,21,08,03,13.30
2013,08,21,08,04,13.40
2013,08,21,08,05,13.40
2013,08,21,08,06,13.50
2013,08,21,08,07,13.50
2013,08,21,08,08,13.50
2013,08,21,08,09,13.60
2013,08,21,08,10,13.60
2013,08,21,08,11,13.60
2013,08,21,08,12,13.50
2013,08,21,08,13,13.50
2013,08,21,08,14,13.50
2013,08,21,08,15,13.60
2013,08,21,08,16,13.60
2013,08,21,08,17,13.70
2013,08,21,08,18,13.70
2013,08,21,08,19,13.80
2013,08,21,08,20,13.80
2013,08,21,08,21,13.90
2013,08,21,08,22,14.00
2013,08,21,08,23,14.00
2013,08,21,08,24,14.10
2013,08,21,08,25,14.10
2013,08,21,08,26,14.10
2013,08,21,08,27,14.20
2013,08,21,08,28,14.30
2013,08,21,08,29,14.30
2013,08,21,08,30,14.40
2013,08,21,08,31,14.40
2013,08,21,08,32,14.50
2013,08,21,08,33,14.50
2013,08,21,08,34,14.60
2013,08,21,08,35,14.60
2013,08,21,08,36,14.60
2013,08,21,08,37,14.70
2013,08,21,08,38,14.70
2013,08,21,08,39,14.80
2013,08,21,08,40,14.90
2013,08,21,08,41,15.00
2013,08,21,08,42,15.10
2013,08,21,08,43,15.10
2013,08,21,08,44,15.20
2013,08,21,08,45,15.30
2013,08,21,08,46,15.30
2013,08,21,08,47,15.40
2013,08,21,08,48,15.40
2013,08,21,08,49,15.40
2013,08,21,08,50,15.50
2013,08,21,08,51,15.60
2013,08,21,08,52,15.70
2013,08,21,08,53,15.80
2013,08,21,08,54,15.90
2013,08,21,08,55,16.00
2013,08,21,08,56,16.20
2013,08,21,08,57,16.30
2013,08,21,08,58,16.50
2013,08,21,08,59,16.70
2013,08,21,09,00,16.80
2013,08,21,09,01,17.00
2013,08,21,09,02,17.10
2013,08,21,09,03,17.20
2013,08,21,09,04,17.40
2013,08,21,09,05,17.50
2013,08,21,09,06,17.60
2013,08,21,09,07,17.60
2013,08,21,09,08,17.70
2013,08,21,09,09,17.80
2013,08,21,09,10,17.90
2013,08,21,09,11,18.00
2013,08,21,09,12,18.00
2013,08,21,09,13,18.10
2013,08,21,09,14,18.10
2013,08,21,09,15,18.20
2013,08,21,09,16,18.30
2013,08,21,09,17,18.30
2013,08,21,09,18,18.40
2013,08,21,09,19,18.50
2013,08,21,09,20,18.50
2013,08,21,09,21,18.60
2013,08,21,09,22,18.60
2013,08,21,09,23,18.70
2013,08,21,09,24,18.70
2013,08,21,09,25,18.70
2013,08,21,09,26,18.70
2013,08,21,09,27,18.70
2013,08,21,09,28,18.80
2013,08,21,09,29,18.80
2013,08,21,09,30,18.80
2013,08,21,09,31,18.90
2013,08,21,09,32,18.90
2013,08,21,09,33,19.00
2013,08,21,09,34,19.00
2013,08,21,09,35,19.00
2013,08,21,09,36,19.10
2013,08,21,09,37,19.10
2013,08,21,09,38,19.20
2013,08,21,09,39,19.20
2013,08,21,09,40,19.30
2013,08,21,09,41,19.30
2013,08,21,09,42,19.40
2013,08,21,09,43,19.40
2013,08,21,09,44,19.40
2013,08,21,09,45,19.50
2013,08,21,09,46,19.50
2013,08,21,09,47,19.50
2013,08,21,09,48,19.60
2013,08,21,09,49,19.60
2013,08,21,09,50,19.70
2013,08,21,09,51,19.70
2013,08,21,09,52,19.80
2013,08,21,09,53,19.80
2013,08,21,09,54,19.70
2013,08,21,09,55,19.70
2013,08,21,09,56,19.70
2013,08,21,09,57,19.60
2013,08,21,09,58,19.60
2013,08,21,09,59,19.60
2013,08,21,10,00,19.60
2013,08,21,10,01,19.60
2013,08,21,10,02,19.70
2013,08,21,10,03,19.70
2013,08,21,10,04,19.80
2013,08,21,10,05,19.80
2013,08,21,10,06,19.90
2013,08,21,10,07,20.00
2013,08,21,10,08,20.10
2013,08,21,10,09,20.20
2013,08,21,10,10,20.30
2013,08,21,10,11,20.40
2013,08,21,10,12,20.50
2013,08,21,10,13,20.50
2013,08,21,10,14,20.60
2013,08,21,10,15,20.60
2013,08,21,10,16,20.70
2013,08,21,10,17,20.70
2013,08,21,10,18,20.80
2013,08,21,10,19,20.80
2013,08,21,10,20,20.80
2013,08,21,10,21,20.80
2013,08,21,10,22,20.90
2013,08,21,10,23,20.90
2013,08,21,10,24,20.90
2013,08,21,10,25,20.90
2013,08,21,10,26,20.90
2013,08,21,10,27,21.00
2013,08,21,10,28,20.90
2013,08,21,10,29,20.90
2013,08,21,10,30,20.90
2013,08,21,10,31,20.80
2013,08,21,10,32,20.80
2013,08,21,10,33,20.80
2013,08,21,10,34,20.90
2013,08,21,10,35,20.90
2013,08,21,10,36,20.90
2013,08,21,10,37,21.00
2013,08,21,10,38,21.00
2013,08,21,10,39,21.00
2013,08,21,10,40,21.00
2013,08,21,10,41,21.00
2013,08,21,10,42,21.00
2013,08,21,10,43,21.00
2013,08,21,10,44,20.90
2013,08,21,10,45,20.80
2013,08,21,10,46,20.70
2013,08,21,10,47,20.60
2013,08,21,10,48,20.50
2013,08,21,10,49,20.40
2013,08,21,10,50,20.20
2013,08,21,10,51,20.10
2013,08,21,10,52,20.10
2013,08,21,10,53,20.00
2013,08,21,10,54,20.00
2013,08,21,10,55,20.10
2013,08,21,10,56,20.10
2013,08,21,10,57,20.20
2013,08,21,10,58,20.30
2013,08,21,10,59,20.40
2013,08,21,11,00,20.40
2013,08,21,11,01,20.40
2013,08,21,11,02,20.40
2013,08,21,11,03,20.40
2013,08,21,11,04,20.30
2013,08,21,11,05,20.40
2013,08,21,11,06,20.40
2013,08,21,11,07,20.50
2013,08,21,11,08,20.50
2013,08,21,11,09,20.60
2013,08,21,11,10,20.70
2013,08,21,11,11,20.70
2013,08,21,11,12,20.80
2013,08,21,11,13,20.90
2013,08,21,11,14,20.90
2013,08,21,11,15,21.00
2013,08,21,11,16,21.10
2013,08,21,11,17,21.10
2013,08,21,11,18,21.20
2013,08,21,11,19,21.30
2013,08,21,11,20,21.40
2013,08,21,11,21,21.60
2013,08,21,11,22,21.70
2013,08,21,11,23,21.70
2013,08,21,11,24,21.80
2013,08,21,11,25,21.80
2013,08,21,11,26,21.70
2013,08,21,11,27,21.60
2013,08,21,11,28,21.40
2013,08,21,11,29,21.30
2013,08,21,11,30,21.20
2013,08,21,11,31,21.20
2013,08,21,11,32,21.20
2013,08,21,11,33,21.30
2013,08,21,11,34,21.30
2013,08,21,11,35,21.30
2013,08,21,11,36,21.30
2013,08,21,11,37,21.30
2013,08,21,11,38,21.40
2013,08,21,11,39,21.50
2013,08,21,11,40,21.60
2013,08,21,11,41,21.70
2013,08,21,11,42,21.80
2013,08,21,11,43,21.80
2013,08,21,11,44,21.80
2013,08,21,11,45,21.80
2013,08,21,11,46,21.70
2013,08,21,11,47,21.70
2013,08,21,11,48,21.60
2013,08,21,11,49,21.60
2013,08,21,11,50,21.60
2013,08,21,11,51,21.60
2013,08,21,11,52,21.70
2013,08,21,11,53,21.70
2013,08,21,11,54,21.80
2013,08,21,11,55,21.90
2013,08,21,11,56,22.00
2013,08,21,11,57,22.10
2013,08,21,11,58,22.10
2013,08,21,11,59,22.10
2013,08,21,12,00,22.20
2013,08,21,12,01,22.20
2013,08,21,12,02,22.20
2013,08,21,12,03,22.30
2013,08,21,12,04,22.40
2013,08,21,12,05,22.50
2013,08,21,12,06,22.50
2013,08,21,12,07,22.60
2013,08,21,12,08,22.60
2013,08,21,12,09,22.60
2013,08,21,12,10,22.70
2013,08,21,12,11,22.70
2013,08,21,12,12,22.80
2013,08,21,12,13,22.80
2013,08,21,12,14,22.80
2013,08,21,12,15,22.70
2013,08,21,12,16,22.80
2013,08,21,12,17,22.80
2013,08,21,12,18,22.70
2013,08,21,12,19,22.70
2013,08,21,12,20,22.70
2013,08,21,12,21,22.70
2013,08,21,12,22,22.60
2013,08,21,12,23,22.60
2013,08,21,12,24,22.50
2013,08,21,12,25,22.50
2013,08,21,12,26,22.50
2013,08,21,12,27,22.50
2013,08,21,12,28,22.40
2013,08,21,12,29,22.30
2013,08,21,12,30,22.20
2013,08,21,12,31,22.00
2013,08,21,12,32,21.90
2013,08,21,12,33,21.70
2013,08,21,12,34,21.60
2013,08,21,12,35,21.40
2013,08,21,12,36,21.30
2013,08,21,12,37,21.10
2013,08,21,12,38,21.00
2013,08,21,12,39,21.00
2013,08,21,12,40,21.00
2013,08,21,12,41,21.10
2013,08,21,12,42,21.10
2013,08,21,12,43,21.20
2013,08,21,12,44,21.20
2013,08,21,12,45,21.20
2013,08,21,12,46,21.20
2013,08,21,12,47,21.20
2013,08,21,12,48,21.20
2013,08,21,12,49,21.30
2013,08,21,12,50,21.30
2013,08,21,12,51,21.20
2013,08,21,12,52,21.20
2013,08,21,12,53,21.10
2013,08,21,12,54,21.00
2013,08,21,12,55,20.90
2013,08,21,12,56,20.80
2013,08,21,12,57,20.70
2013,08,21,12,58,20.60
2013,08,21,12,59,20.60
2013,08,21,13,00,20.60
2013,08,21,13,01,20.70
2013,08,21,13,02,20.70
2013,08,21,13,03,20.80
2013,08,21,13,04,20.80
2013,08,21,13,05,20.90
2013,08,21,13,06,20.90
2013,08,21,13,07,20.90
2013,08,21,13,08,20.90
2013,08,21,13,09,20.90
2013,08,21,13,10,20.80
2013,08,21,13,11,20.80
2013,08,21,13,12,20.80
2013,08,21,13,13,20.80
2013,08,21,13,14,20.80
2013,08,21,13,15,20.80
2013,08,21,13,16,20.80
2013,08,21,13,17,20.80
2013,08,21,13,18,20.80
2013,08,21,13,19,20.80
2013,08,21,13,20,20.80
2013,08,21,13,21,20.80
2013,08,21,13,22,20.80
2013,08,21,13,23,20.70
2013,08,21,13,24,20.70
2013,08,21,13,25,20.80
2013,08,21,13,26,20.80
2013,08,21,13,27,20.80
2013,08,21,13,28,20.70
2013,08,21,13,29,20.70
2013,08,21,13,30,20.70
2013,08,21,13,31,20.70
2013,08,21,13,32,20.60
2013,08,21,13,33,20.60
2013,08,21,13,34,20.60
2013,08,21,13,35,20.60
2013,08,21,13,36,20.60
2013,08,21,13,37,20.60
2013,08,21,13,38,20.60
2013,08,21,13,39,20.60
2013,08,21,13,40,20.50
2013,08,21,13,41,20.50
2013,08,21,13,42,20.60
2013,08,21,13,43,20.60
2013,08,21,13,44,20.60
2013,08,21,13,45,20.60
2013,08,21,13,46,20.60
2013,08,21,13,47,20.70
2013,08,21,13,48,20.70
2013,08,21,13,49,20.80
2013,08,21,13,50,20.80
2013,08,21,13,51,20.80
2013,08,21,13,52,20.70
2013,08,21,13,53,20.70
2013,08,21,13,54,20.60
2013,08,21,13,55,20.50
2013,08,21,13,56,20.50
2013,08,21,13,57,20.40
2013,08,21,13,58,20.40
2013,08,21,13,59,20.30
2013,08,21,14,00,20.20
2013,08,21,14,01,20.20
2013,08,21,14,02,20.20
2013,08,21,14,03,20.20
2013,08,21,14,04,20.10
2013,08,21,14,05,20.10
2013,08,21,14,06,20.10
2013,08,21,14,07,20.00
2013,08,21,14,08,20.00
2013,08,21,14,09,20.00
2013,08,21,14,10,20.10
2013,08,21,14,11,20.10
2013,08,21,14,12,20.10
2013,08,21,14,13,20.10
2013,08,21,14,14,20.10
2013,08,21,14,15,20.20
2013,08,21,14,16,20.30
2013,08,21,14,17,20.40
2013,08,21,14,18,20.40
2013,08,21,14,19,20.40
2013,08,21,14,20,20.40
2013,08,21,14,21,20.40
2013,08,21,14,22,20.30
2013,08,21,14,23,20.20
2013,08,21,14,24,20.20
2013,08,21,14,25,20.30
2013,08,21,14,26,20.30
2013,08,21,14,27,20.20
2013,08,21,14,28,20.10
2013,08,21,14,29,20.00
2013,08,21,14,30,20.00
2013,08,21,14,31,20.00
2013,08,21,14,32,20.10
2013,08,21,14,33,20.20
2013,08,21,14,34,20.30
2013,08,21,14,35,20.40
2013,08,21,14,36,20.60
2013,08,21,14,37,20.70
2013,08,21,14,38,20.80
2013,08,21,14,39,20.90
2013,08,21,14,40,21.00
2013,08,21,14,41,21.10
2013,08,21,14,42,21.20
2013,08,21,14,43,21.20
2013,08,21,14,44,21.20
2013,08,21,14,45,21.20
2013,08,21,14,46,21.10
2013,08,21,14,47,21.00
2013,08,21,14,48,21.00
2013,08,21,14,49,21.10
2013,08,21,14,50,21.10
2013,08,21,14,51,21.10
2013,08,21,14,52,21.00
2013,08,21,14,53,21.00
2013,08,21,14,54,21.00
2013,08,21,14,55,21.00
2013,08,21,14,56,21.00
2013,08,21,14,57,21.10
2013,08,21,14,58,21.00
2013,08,21,14,59,21.00
2013,08,21,15,00,21.00
2013,08,21,15,01,21.00
2013,08,21,15,02,21.10
2013,08,21,15,03,21.10
2013,08,21,15,04,21.10
2013,08,21,15,05,21.20
2013,08,21,15,06,21.20
2013,08,21,15,07,21.20
2013,08,21,15,08,21.10
2013,08,21,15,09,21.10
2013,08,21,15,10,21.10
2013,08,21,15,11,21.10
2013,08,21,15,12,21.10
2013,08,21,15,13,21.10
2013,08,21,15,14,21.10
2013,08,21,15,15,21.10
2013,08,21,15,16,21.00
2013,08,21,15,17,20.90
2013,08,21,15,18,20.90
2013,08,21,15,19,20.90
2013,08,21,15,20,20.90
2013,08,21,15,21,20.90
2013,08,21,15,22,20.90
2013,08,21,15,23,20.90
2013,08,21,15,24,20.90
2013,08,21,15,25,21.00
2013,08,21,15,26,21.00
2013,08,21,15,27,21.00
2013,08,21,15,28,21.00
2013,08,21,15,29,21.00
2013,08,21,15,30,20.90
2013,08,21,15,31,20.90
2013,08,21,15,32,21.00
2013,08,21,15,33,20.90
2013,08,21,15,34,20.80
2013,08,21,15,35,20.80
2013,08,21,15,36,20.80
2013,08,21,15,37,20.80
2013,08,21,15,38,20.90
2013,08,21,15,39,21.00
2013,08,21,15,40,21.10
2013,08,21,15,41,21.10
2013,08,21,15,42,21.20
2013,08,21,15,43,21.20
2013,08,21,15,44,21.20
2013,08,21,15,45,21.30
2013,08,21,15,46,21.40
2013,08,21,15,47,21.50
2013,08,21,15,48,21.60
2013,08,21,15,49,21.70
2013,08,21,15,50,21.70
2013,08,21,15,51,21.70
2013,08,21,15,52,21.70
2013,08,21,15,53,21.60
2013,08,21,15,54,21.60
2013,08,21,15,55,21.60
2013,08,21,15,56,21.60
2013,08,21,15,57,21.60
2013,08,21,15,58,21.70
2013,08,21,15,59,21.70
2013,08,21,16,00,21.80
2013,08,21,16,01,21.80
2013,08,21,16,02,21.80
2013,08,21,16,03,21.80
2013,08,21,16,04,21.90
2013,08,21,16,05,21.90
2013,08,21,16,06,22.00
2013,08,21,16,07,22.00
2013,08,21,16,08,22.10
2013,08,21,16,09,22.10
2013,08,21,16,10,22.10
2013,08,21,16,11,22.10
2013,08,21,16,12,22.20
2013,08,21,16,13,22.20
2013,08,21,16,14,22.20
2013,08,21,16,15,22.20
2013,08,21,16,16,22.20
2013,08,21,16,17,22.20
2013,08,21,16,18,22.20
2013,08,21,16,19,22.20
2013,08,21,16,20,22.20
2013,08,21,16,21,22.20
2013,08,21,16,22,22.10
2013,08,21,16,23,22.10
2013,08,21,16,24,22.10
2013,08,21,16,25,22.00
2013,08,21,16,26,22.00
2013,08,21,16,27,21.90
2013,08,21,16,28,21.80
2013,08,21,16,29,21.80
2013,08,21,16,30,21.80
2013,08,21,16,31,21.80
2013,08,21,16,32,21.80
2013,08,21,16,33,21.80
2013,08,21,16,34,21.90
2013,08,21,16,35,21.90
2013,08,21,16,36,22.00
2013,08,21,16,37,22.00
2013,08,21,16,38,22.10
2013,08,21,16,39,22.20
2013,08,21,16,40,22.20
2013,08,21,16,41,22.30
2013,08,21,16,42,22.30
2013,08,21,16,43,22.40
2013,08,21,16,44,22.40
2013,08,21,16,45,22.50
2013,08,21,16,46,22.50
2013,08,21,16,47,22.50
2013,08,21,16,48,22.40
2013,08,21,16,49,22.40
2013,08,21,16,50,22.30
2013,08,21,16,51,22.30
2013,08,21,16,52,22.40
2013,08,21,16,53,22.40
2013,08,21,16,54,22.40
2013,08,21,16,55,22.40
2013,08,21,16,56,22.40
2013,08,21,16,57,22.40
2013,08,21,16,58,22.40
2013,08,21,16,59,22.40
2013,08,21,17,00,22.50
2013,08,21,17,01,22.50
2013,08,21,17,02,22.60
2013,08,21,17,03,22.70
2013,08,21,17,04,22.70
2013,08,21,17,05,22.70
2013,08,21,17,06,22.80
2013,08,21,17,07,22.80
2013,08,21,17,08,22.80
2013,08,21,17,09,22.80
2013,08,21,17,10,22.80
2013,08,21,17,11,22.90
2013,08,21,17,12,22.90
2013,08,21,17,13,22.90
2013,08,21,17,14,22.90
2013,08,21,17,15,23.00
2013,08,21,17,16,23.00
2013,08,21,17,17,23.00
2013,08,21,17,18,23.00
2013,08,21,17,19,23.00
2013,08,21,17,20,22.90
2013,08,21,17,21,22.90
2013,08,21,17,22,22.90
2013,08,21,17,23,23.00
2013,08,21,17,24,23.00
2013,08,21,17,25,23.10
2013,08,21,17,26,23.10
2013,08,21,17,27,23.10
2013,08,21,17,28,23.10
2013,08,21,17,29,23.10
2013,08,21,17,30,23.10
2013,08,21,17,31,23.10
2013,08,21,17,32,23.20
2013,08,21,17,33,23.20
2013,08,21,17,34,23.30
2013,08,21,17,35,23.40
2013,08,21,17,36,23.40
2013,08,21,17,37,23.50